Regional Weather Roundup
Issued by NWS

Home | Current Version | Previous Version | Graphics & Text | Print | Product List | Glossary On
Versions: 1 2 3 4 5 6 7 8 9 10 11 12 13 14 15 16 17 18 19 20 21 22 23 24 25 26 27 28 29 30 31 32 33 34 35 36 37 38 39 40 41 42 43 44 45 46 47 48 49 50
000
ASUS43 KLMK 032202
RWRKY
KENTUCKY REGIONAL WEATHER ROUNDUP
NATIONAL WEATHER SERVICE LOUISVILLE KY
600 PM EDT THU SEP 03 2015

NOTE "FAIR" INDICATES FEW OR NO CLOUDS BELOW 12,000 FEET
WITH NO SIGNIFICANT WEATHER AND/OR OBSTRUCTIONS TO VISIBILITY.

KYZ001>023-026-027-061>063-070>075-032300-
WESTERN AND SOUTH CENTRAL KENTUCKY

CITY           SKY/WX    TMP DP  RH WIND       PRES   REMARKS
PADUCAH        MOSUNNY   87  70  56 CALM      29.93F HX  92
HENDERSON      SUNNY     90  66  45 N5        29.92F HX  92
OWENSBORO      SUNNY     91  69  48 SE7       29.94F HX  95
HOPKINSVILLE   SUNNY     91  67  44 NW8       29.93F HX  94
BOWLING GREEN  SUNNY     87  65  47 W5        29.95S
GLASGOW        NOT AVBL
$$

KYZ024-025-028>034-038-045-046-053-032300-
NORTH CENTRAL KENTUCKY

CITY           SKY/WX    TMP DP  RH WIND       PRES   REMARKS
LOUISVILLE/SDF MOSUNNY   92  64  39 SW3       29.93F HX  93
LOUISVILLE/LOU SUNNY     90  63  40 CALM      29.94F HX  91
FORT KNOX      SUNNY     88  65  47 S1        29.94F HX  90
$$

KYZ035>037-039>044-047>052-055>060-089>105-032300-
NORTHEAST KENTUCKY

CITY           SKY/WX    TMP DP  RH WIND       PRES   REMARKS
LEXINGTON      SUNNY     90  64  42 N7        29.97F HX  91
COVINGTON      MOSUNNY   90  63  40 W10       29.95F HX  91
FRANKFORT      SUNNY     90  63  40 VRB5      29.95F HX  91
$$

KYZ054-064>069-076>088-106>120-032300-
SOUTHEAST KENTUCKY

CITY           SKY/WX    TMP DP  RH WIND       PRES   REMARKS
JACKSON        SUNNY     85  69  58 CALM      29.99F
LONDON         SUNNY     85  65  51 CALM      29.98F
SOMERSET       NOT AVBL
MIDDLESBORO    NOT AVBL
MONTICELLO     CLEAR     91  67  45 NW6       30.00F HX  94
$$



USA.gov is the U.S. government's official web portal to all federal, state and local government web resources and services.